{"data":{"norad_id":66007,"epoch":"2026-09-20T05:26:17.162592Z","epoch_age_seconds":126697,"freshness":"FRESH","line1":"1 66007U 25232C   26263.22658753  .00019922  00000+0  59955-3 0  9998","line2":"2 66007  53.1589 278.6337 0001184  92.8288 267.2850 15.34381174 53239","mean_motion":15.34381174,"eccentricity":0.0001184,"inclination_deg":53.1589,"raan_deg":278.6337,"arg_perigee_deg":92.8288,"mean_anomaly_deg":267.285,"bstar":0.00059955,"rev_number":5323,"period_min":93.848909540909,"perigee_km":461.94923350906,"apogee_km":463.56915772818,"semimajor_km":6840.8961956186,"source":"CELESTRAK","updated_at":"2026-09-21T09:00:35.768505Z"}}